Location: Crouy
(49.2149°N, 2.3215°E)
Time: 00:30:13
(UTC+00:00)

Daily predictions for brighter satellites

Satellite Brightness Start Highest point End
(mag) Time Altitude Azimuth Time Altitude Azimuth Time Altitude Azimuth
ATLAS 2AS CENTAUR R/B 4.3 02:18:39 29° N 02:18:39 29° N 02:24:11 10° NE
Cosmos 2082 Rocket 3.9 02:51:57 26° NNE 02:51:57 26° NNE 02:54:28 10° NNE
Cosmos 2219 Rocket 4.3 02:47:06 15° N 02:50:16 23° NE 02:54:45 10° E
ARIANE 5 R/B 4.1 02:49:13 10° NNE 02:52:07 30° NE 02:52:07 30° NE
ADEOS II 4.4 02:49:17 10° N 02:50:08 15° N 02:50:08 15° N
Cosmos 2360 Rocket 3.3 02:56:00 41° E 02:56:00 41° E 03:00:27 10° SE
Lacrosse 5 rocket 3.9 03:03:53 20° NE 03:03:53 20° NE 03:05:20 10° NE
Cosmos 2218 Rocket 4.5 02:59:27 10° N 03:05:48 58° ENE 03:12:03 10° SSE
Cosmos 2333 Rocket 3.7 03:03:16 20° N 03:06:30 33° NE 03:11:41 10° ESE
CZ-4C R/B 3.1 03:10:03 51° NNW 03:11:59 70° NE 03:20:15 10° SE
COSMOS 2455 3.1 03:26:17 59° N 03:26:17 59° N 03:31:20 10° NNE
Cosmos 1953 4.3 03:27:39 25° ESE 03:27:39 25° ESE 03:29:59 10° SE
Cosmos 773 Rocket 4.4 03:30:38 61° NE 03:30:38 61° NE 03:35:01 10° NNE
ISS -0.6 03:32:54 13° ESE 03:32:54 13° ESE 03:33:38 10° E
Cosmos 1959 Rocket 4.3 03:40:12 10° NNW 03:46:20 79° W 03:52:28 10° S
ALOS 2.5 03:41:41 10° NNE 03:46:22 66° ESE 03:46:48 62° SE
In-Cosmos 22 4.0 03:47:22 59° S 03:48:22 79° E 03:53:42 10° NNE
Cosmos 864 Rocket 4.3 03:43:06 10° NNW 03:49:19 77° W 03:55:32 10° S
CZ-4B R/B 3.4 03:47:22 10° NNE 03:52:40 87° ESE 03:53:31 64° S
Meteor 1-21 4.1 03:54:55 69° WNW 03:54:55 69° WNW 04:00:32 10° N
PAYLOAD A 3.9 03:49:53 10° NNE 03:55:03 79° WNW 03:55:22 76° WSW
Cosmos 2366 rocket 3.9 03:49:19 10° NNW 03:55:38 68° W 04:01:56 10° S
ATLAS CENTAUR R/B 3.5 03:58:05 18° N 03:58:05 18° N 04:00:14 10° NNE
CZ-2C R/B 3.4 03:57:07 10° NNE 04:00:02 49° NE 04:00:02 49° NE
USA 276 4.2 04:03:15 25° ESE 04:03:15 25° ESE 04:05:08 10° E
Cosmos 1484 Rocket 3.4 04:00:04 10° NNE 04:03:50 53° E 04:05:22 31° SSE
USA 305 3.7 04:05:37 39° SSE 04:06:11 41° SE 04:10:10 10° ENE
PSLV R/B 4.2 04:02:13 10° NNE 04:06:33 56° E 04:10:50 10° S
Cosmos 1833 4.3 04:04:12 27° SSW 04:07:22 72° ESE 04:12:59 10° NNE
Cosmos 2084 3.5 04:10:14 69° SSW 04:10:14 69° SSW 04:14:23 10° SE
ATLAS 2AS CENTAUR R/B 4.3 04:06:06 15° NW 04:11:10 29° NNE 04:17:14 10° ENE
COSMOS 2428 3.3 04:05:50 10° NNW 04:11:28 57° NE 04:17:05 10° SE
SL-4 R/B 3.3 04:13:17 30° S 04:13:17 30° S 04:15:54 10° SSE
Cosmos 1538 Rocket 4.0 04:11:17 34° SSW 04:13:43 90° WNW 04:19:08 10° NNE
CZ-2C R/B 4.2 04:10:15 10° SE 04:15:18 38° ENE 04:20:27 10° N
Cosmos 2333 4.1 04:13:03 17° NNW 04:17:35 82° WSW 04:23:22 10° SSE
Cosmos 44 Rocket 3.7 04:14:46 25° NNW 04:17:38 62° NE 04:22:27 10° SE
CZ-2C R/B 2.5 04:13:47 10° N 04:18:12 50° WNW 04:18:12 50° WNW
Meteor 1-16 Rocket 4.1 04:24:10 10° NNW 04:29:31 59° W 04:34:44 10° S
Cosmos 2181 Rocket 4.3 04:27:42 34° WSW 04:29:43 44° WNW 04:35:43 10° N
Cosmos 2322 Rocket 4.0 04:33:33 15° SSW 04:33:33 15° SSW 04:34:41 10° SSW
Nadezhda 3 Rocket 4.0 04:26:11 10° S 04:32:20 84° E 04:38:33 10° N
ARIANE 5 R/B 3.4 04:28:37 10° N 04:32:26 29° NW 04:32:26 29° NW
Cosmos 1900 4.4 04:30:01 19° SSW 04:33:26 73° SE 04:38:20 10° NE
Lacrosse 5 3.6 04:35:23 16° SSW 04:35:23 16° SSW 04:37:10 10° S
Cosmos 1626 2.0 04:33:47 59° WSW 04:34:08 63° WNW 04:37:49 10° N
Cosmos 2082 Rocket 3.9 04:33:49 16° NW 04:34:13 16° NNW 04:37:39 10° N
Cosmos 2219 Rocket 2.1 04:29:15 10° NNW 04:34:57 84° WSW 04:40:37 10° SSE
Cosmos 1818 3.5 04:32:39 23° NW 04:36:08 75° SW 04:41:34 10° SSE
USA 307 3.3 04:34:36 32° SSW 04:36:21 58° SE 04:40:28 10° ENE
USA 306 3.1 04:35:45 33° SW 04:37:28 64° SSE 04:41:41 10° ENE
Spot 4 Rocket 4.3 04:33:19 10° N 04:38:11 45° WNW 04:40:17 29° WSW
Cosmos 2360 Rocket 2.7 04:37:53 33° W 04:38:54 35° WSW 04:43:59 10° S
Cosmos 1821 Rocket 3.9 04:33:54 10° NNW 04:40:04 67° W 04:46:06 10° S
Lacrosse 5 rocket 2.7 04:39:28 25° NW 04:40:52 30° N 04:44:50 10° ENE
NOSS 0 Rocket 4.4 04:39:07 10° NNW 04:45:15 62° NE 04:51:20 10° SE
Cosmos 2237 Rocket 3.4 04:40:37 10° NNW 04:46:02 42° NE 04:51:23 10° ESE
Cosmos 1934 Rocket 4.0 04:42:00 10° N 04:48:09 81° E 04:54:20 10° SSE
FENGYUN 3A 4.1 04:44:07 10° N 04:49:05 38° WNW 04:51:59 22° WSW
Cosmos 1025 Rocket 3.0 04:45:03 10° S 04:49:21 86° E 04:53:40 10° N
Envisat 3.8 04:44:24 10° NNE 04:49:25 54° E 04:54:23 10° S
Cosmos 2056 Rocket 3.8 04:44:37 10° NNW 04:49:49 67° ENE 04:55:03 10° SSE
Cosmos 2333 Rocket 2.3 04:45:28 10° NW 04:51:04 54° WSW 04:56:39 10° S
ERBS 4.0 04:48:44 11° SSW 04:51:26 30° SE 04:54:21 10° ENE
Cosmos 923 Rocket 4.0 04:47:27 10° SSW 04:52:40 88° ESE 04:57:54 10° NNE
Cosmos 1680 Rocket 3.8 04:48:53 10° SSW 04:54:05 71° ESE 04:59:22 10° NNE
Cosmos 1346 Rocket 3.6 04:55:09 30° WNW 04:55:19 30° WNW 04:58:55 10° N
Cosmos 1674 4.1 04:57:47 21° NW 04:57:47 21° NW 04:59:53 10° NNW
USA 308 2.9 04:56:49 22° SW 04:59:28 79° SSE 05:03:44 10° ENE
Cosmos 1455 4.5 04:56:36 10° NNE 04:59:48 26° ENE 05:02:59 10° SE
CZ-4C R/B 3.5 04:55:17 17° WNW 05:00:29 39° WSW 05:08:06 10° S
Cosmos 1953 3.5 05:03:36 23° WSW 05:03:36 23° WSW 05:05:57 10° SW
H-2A R/B 2.8 04:59:47 10° NNE 05:03:36 76° ESE 05:07:19 10° S
Meteor 1-31 Rocket 3.1 05:02:34 10° NNE 05:06:22 68° ESE 05:10:08 10° S
ISS -3.5 05:05:54 21° SW 05:07:57 67° SSE 05:11:19 10° ENE
Cosmos 1300 2.8 05:04:44 10° NNW 05:08:27 50° W 05:12:07 10° S
Cosmos 1441 Rocket 3.1 05:05:07 10° SSW 05:08:47 56° WNW 05:12:27 10° N
Cosmos 1536 Rocket 4.0 05:05:27 10° S 05:09:47 66° E 05:14:08 10° NNE
CZ-4B R/B 3.8 05:06:32 10° NNE 05:10:14 77° ESE 05:14:01 10° S
Cosmos 1455 Rocket 3.7 05:07:01 10° NNW 05:11:00 33° W 05:14:57 10° SSW
Meteor 2-5 Rocket 3.8 05:06:18 10° S 05:11:50 84° E 05:17:30 10° NNE
COSMOS 2455 4.2 05:09:26 16° WNW 05:12:19 23° NNW 05:17:00 10° NNE
Cosmos 2322 4.1 05:07:10 10° NW 05:12:30 42° WSW 05:17:47 10° S
COSMO-SKYMED 1 2.5 05:08:16 10° S 05:12:35 68° WSW 05:16:57 10° NNW
COSMOS 2487 2.6 05:12:04 13° SW 05:14:53 44° WNW 05:18:08 10° N
USA 234 3.6 05:08:28 10° ENE 05:15:00 68° SE 05:21:30 10° SW
SL-27 R/B 4.0 05:17:40 17° NW 05:17:40 17° NW 05:19:53 10° NNW
Cosmos 1371 Rocket 4.0 05:16:39 10° NNW 05:21:47 63° WSW 05:26:53 10° S
Meteor 2-10 Rocket 3.4 05:17:31 10° NNW 05:22:33 69° W 05:27:31 10° S
SL-14 R/B 3.8 05:19:22 10° SW 05:22:57 34° WNW 05:26:33 10° N
Cosmos 2112 Rocket 4.0 05:17:45 10° SSW 05:23:00 81° WNW 05:28:19 10° NNE
ALOS 3.7 05:20:03 10° NNW 05:23:18 19° WNW 05:25:16 15° W
Cosmos 1544 Rocket 4.0 05:21:33 10° NNW 05:25:39 39° W 05:29:42 10° SSW
Meteor 1-4 Rocket 3.0 05:23:30 10° NNW 05:26:45 37° W 05:30:01 10° SSW
Cosmos 1975 Rocket 4.0 05:23:30 10° SW 05:27:20 28° WNW 05:31:13 10° N
Cosmos 1624 Rocket 4.1 05:25:42 10° NNW 05:30:57 59° WSW 05:36:09 10° S
IRAS Rocket 4.3 05:28:27 10° S 05:34:03 68° WSW 05:39:40 10° NNW
CZ-2C R/B 4.5 05:32:56 10° NNW 05:34:42 13° WNW 05:35:22 13° WNW
Meteor 1-24 Rocket 3.6 05:31:03 10° SSW 05:36:25 76° WNW 05:42:00 10° N
ATLAS CENTAUR R/B 3.9 05:36:00 10° NNW 05:37:31 11° N 05:39:04 10° NNE
Cosmos 1484 Rocket 4.3 05:35:24 10° NNW 05:37:51 16° WNW 05:40:18 10° WSW
USA 276 2.0 05:35:27 13° W 05:38:15 88° N 05:41:23 10° E
CZ-4B R/B 3.2 05:36:47 10° SE 05:39:38 33° ENE 05:42:35 10° N
CBERS 1 LM4 rocket 4.5 05:35:12 10° N 05:40:05 56° WNW 05:44:48 10° SW
Cosmos 1339 Rocket 4.4 05:34:26 10° SSW 05:40:34 67° WNW 05:46:40 10° N
USA 305 3.0 05:41:49 10° W 05:46:00 61° NNW 05:50:10 10° ENE
Cosmos 1726 Rocket 4.0 05:48:17 10° N 05:52:42 67° ENE 05:57:02 10° SSE
COSMOS 2428 3.6 05:50:39 10° NW 05:55:24 28° WSW 06:00:09 10° SSW
CZ-2C R/B 3.2 05:50:23 10° SSW 05:55:33 40° W 06:00:50 10° NNW
CZ-2C R/B 3.5 05:50:21 10° NNE 05:55:33 67° ESE 06:00:28 10° S
NOSS 3-4 (A) 3.9 05:51:23 10° NW 05:58:19 88° SW 06:06:05 10° SE
NOSS 3-4 (C) 3.9 05:51:30 10° NW 05:58:25 88° SW 06:06:12 10° SE
Cosmos 44 Rocket 4.5 05:54:50 10° WNW 05:58:46 24° WSW 06:02:37 10° SSW
Cosmos 2297 Rocket 2.6 05:55:46 10° SSW 06:01:22 71° ESE 06:07:01 10° NNE
ATLAS 2AS CENTAUR R/B 3.4 05:56:23 10° NW 06:03:41 58° NE 06:10:26 10° ESE
